TimeAKST,TemperatureF,Dew PointF,Humidity,Sea Level PressureIn,VisibilityMPH,Wind Direction,Wind SpeedMPH,Gust SpeedMPH,PrecipitationIn,Events,Conditions,WindDirDegrees,DateUTC
12:10 AM,1.0,-2.0,87,30.77,2.5,Calm,Calm,-,N/A,,Overcast,0,2014-02-03 09:10:00
12:19 AM,1.0,-2.9,83,30.77,3.0,Calm,Calm,-,N/A,,Overcast,0,2014-02-03 09:19:00
12:39 AM,1.0,-2.0,87,30.77,1.8,Calm,Calm,-,N/A,,Overcast,0,2014-02-03 09:39:00
12:53 AM,1.9,-2.0,83,30.85,1.8,Calm,Calm,-,N/A,,Overcast,0,2014-02-03 09:53:00
1:06 AM,1.9,-2.0,83,30.77,2.0,Calm,Calm,-,N/A,,Overcast,0,2014-02-03 10:06:00
1:21 AM,1.9,-2.0,83,30.77,4.0,Calm,Calm,-,N/A,,Overcast,0,2014-02-03 10:21:00
1:53 AM,1.9,-2.9,80,30.85,7.0,Calm,Calm,-,N/A,,Overcast,0,2014-02-03 10:53:00
3:14 AM,1.9,-0.9,88,30.77,2.0,Calm,Calm,-,N/A,,Overcast,0,2014-02-03 12:14:00
3:24 AM,1.9,-2.0,83,30.77,8.0,Calm,Calm,-,N/A,,Overcast,0,2014-02-03 12:24:00
3:53 AM,1.9,-2.9,80,30.85,10.0,Calm,Calm,-,N/A,,Overcast,0,2014-02-03 12:53:00
4:36 AM,1.9,-2.0,83,30.77,5.0,Calm,Calm,-,N/A,,Overcast,0,2014-02-03 13:36:00
4:53 AM,1.9,-2.9,80,30.85,8.0,Calm,Calm,-,N/A,,Overcast,0,2014-02-03 13:53:00
5:01 AM,1.9,-2.9,80,30.77,8.0,Calm,Calm,-,N/A,,Overcast,0,2014-02-03 14:01:00
5:53 AM,1.9,-4.0,76,30.85,10.0,Calm,Calm,-,N/A,,Overcast,0,2014-02-03 14:53:00
6:53 AM,-0.0,-5.1,79,30.85,10.0,Calm,Calm,-,N/A,,Overcast,0,2014-02-03 15:53:00
7:53 AM,-0.9,-6.0,79,30.86,10.0,Calm,Calm,-,N/A,,Overcast,0,2014-02-03 16:53:00
8:53 AM,-4.0,-9.9,76,30.87,10.0,Calm,Calm,-,N/A,,Overcast,0,2014-02-03 17:53:00
9:53 AM,-5.1,-9.9,80,30.88,10.0,Calm,Calm,-,N/A,,Mostly Cloudy,0,2014-02-03 18:53:00
10:07 AM,-6.0,-11.0,79,30.79,10.0,Calm,Calm,-,N/A,,Partly Cloudy,0,2014-02-03 19:07:00
10:53 AM,-2.9,-9.0,75,30.87,10.0,Calm,Calm,-,N/A,,Clear,0,2014-02-03 19:53:00
11:06 AM,-2.9,-9.0,75,30.79,10.0,Calm,Calm,-,N/A,,Partly Cloudy,0,2014-02-03 20:06:00
11:53 AM,-2.0,-7.1,79,30.87,10.0,Calm,Calm,-,N/A,,Clear,0,2014-02-03 20:53:00
12:53 PM,-0.0,-6.0,76,30.87,10.0,Calm,Calm,-,N/A,,Clear,0,2014-02-03 21:53:00
1:53 PM,-0.0,-6.0,76,30.88,10.0,Calm,Calm,-,N/A,,Clear,0,2014-02-03 22:53:00
2:53 PM,-2.9,-8.0,79,30.88,10.0,Calm,Calm,-,N/A,,Clear,0,2014-02-03 23:53:00
3:53 PM,-8.0,-13.0,79,30.88,10.0,Calm,Calm,-,N/A,,Clear,0,2014-02-04 00:53:00
4:53 PM,-11.0,-17.0,75,30.88,10.0,South,3.5,-,N/A,,Clear,190,2014-02-04 01:53:00
5:53 PM,-11.9,-18.9,71,30.88,10.0,South,3.5,-,N/A,,Clear,190,2014-02-04 02:53:00
6:53 PM,-15.0,-20.9,75,30.88,10.0,South,3.5,-,N/A,,Clear,180,2014-02-04 03:53:00
7:53 PM,-15.0,-20.0,78,30.90,10.0,SSW,4.6,-,N/A,,Clear,210,2014-02-04 04:53:00
8:53 PM,-16.1,-23.1,71,30.91,10.0,South,4.6,-,N/A,,Clear,180,2014-02-04 05:53:00
9:53 PM,-16.1,-22.0,74,30.92,10.0,SSE,3.5,-,N/A,,Clear,160,2014-02-04 06:53:00
10:53 PM,-17.0,-23.1,74,30.93,10.0,SSW,4.6,-,N/A,,Clear,200,2014-02-04 07:53:00
11:53 PM,-18.0,-24.0,74,30.94,10.0,South,3.5,-,N/A,,Clear,170,2014-02-04 08:53:00